Weather History for GMTA - November, 2012

Change the Weather History Date:

Friday, November 9, 2012

  Actual Average Record
Temperature  
Mean Temperature 66 °F -  
Max Temperature 69 °F 64 °F 78 °F (2002)
Min Temperature 63 °F 50 °F 48 °F (1999)
Cooling Degree Days 1    
Growing Degree Days 16 (Base 50)    
Moisture  
Dew Point 60 °F    
Average Humidity 77    
Maximum Humidity 88    
Minimum Humidity 65    
Precipitation  
Precipitation 0.00 in - - ()
Sea Level Pressure  
Sea Level Pressure 29.97 in    
Wind  
Wind Speed 3 mph ()    
Max Wind Speed 7 mph    
Max Gust Speed -    
Visibility 4.6 miles    
Events      
Averages and records for this station are not official NWS values.
T = Trace of Precipitation, MM = Missing Value Source: Averaged Metar Reports

Daily Weather History Graph

Daily Weather History Graph

Search for Another Location

Airport or City:

Trip Planner

Search our weather history database for the weather conditions in past years. The results will help you decide how hot, cold, wet, or windy it might be!

Date:

Astronomy

Nov. 09, 2012 Rise Set
Actual Time 6:44 AM WET 5:13 PM WET
Civil Twilight 6:17 AM WET 5:40 PM WET
Nautical Twilight 5:47 AM WET 6:10 PM WET
Astronomical Twilight 5:17 AM WET 6:40 PM WET
Moon 1:38 AM WET (11/9) 2:09 PM WET (11/9)
Length of Visible Light 11h 22m
Length of Day
10h 28m
Waning Crescent, 25% of the Moon is Illuminated
Nov 9
Waning Crescent
Nov 13
New
Nov 20
First Quarter
Nov 28
Full
Dec 6
Last Quarter

Hourly Weather History & Observations

Time (WET) Temp. Dew Point Humidity Pressure Visibility Wind Dir Wind Speed Gust Speed Precip Events Conditions
6:00 AM 65 °F 60 °F 80% 29.92 in 4 mi WSW 2.3 mph - -   Overcast
6:00 AM 64.4 °F 60.8 °F 88% 29.92 in 3.7 mi WSW 2.3 mph - N/A   Mostly Cloudy
7:00 AM 66.2 °F 59.0 °F 78% 29.92 in 5.0 mi SSE 4.6 mph - N/A   Scattered Clouds
8:00 AM 66.2 °F 60.8 °F 83% 29.95 in 5.0 mi Calm Calm - N/A   Scattered Clouds
9:00 AM 68 °F 62 °F 75% 29.97 in 5 mi Calm Calm - -   Mostly Cloudy
9:00 AM 68.0 °F 62.6 °F 83% 29.95 in 5.0 mi WSW 2.3 mph - N/A   Mostly Cloudy
10:00 AM 68.0 °F 62.6 °F 83% 29.98 in 5.0 mi NW 4.6 mph - N/A   Mostly Cloudy
11:00 AM 68.0 °F 60.8 °F 78% 29.98 in 3.7 mi West 6.9 mph - N/A   Mostly Cloudy
12:00 PM 69 °F 60 °F 65% 29.98 in 5 mi NW 6.9 mph - -   Overcast
12:00 PM 69.8 °F 60.8 °F 73% 29.98 in 5.0 mi NW 6.9 mph - N/A   Mostly Cloudy
1:00 PM 68.0 °F 57.2 °F 68% 29.98 in 5.0 mi WNW 6.9 mph - N/A   Mostly Cloudy
2:00 PM 68.0 °F 59.0 °F 73% 29.98 in 5.0 mi NW 2.3 mph - N/A   Mostly Cloudy
3:00 PM 66 °F 58 °F 70% 29.97 in 4 mi North 4.6 mph - -   Overcast
3:00 PM 66.2 °F 59.0 °F 78% 29.95 in 3.7 mi North 4.6 mph - N/A   Mostly Cloudy
4:00 PM 66.2 °F 59.0 °F 78% 29.98 in 3.7 mi NNW 4.6 mph - N/A   Mostly Cloudy
5:00 PM 66.2 °F 59.0 °F 78% 29.98 in 3.7 mi NNW 4.6 mph - N/A   Mostly Cloudy
6:00 PM 65 °F 58 °F 73% 29.99 in 5 mi East 2.3 mph - -   Overcast
6:00 PM 66.2 °F 59.0 °F 78% 29.98 in 5.0 mi East 2.3 mph - N/A   Mostly Cloudy
7:00 PM 64.4 °F 59.0 °F 83% 29.98 in 5.0 mi SSW 2.3 mph - N/A   Mostly Cloudy
8:00 PM 64.4 °F 59.0 °F 83% 29.98 in 5.0 mi West 2.3 mph - N/A   Mostly Cloudy
9:00 PM 64 °F 58 °F 75% 30.00 in 5 mi SW 2.3 mph - -   Overcast
9:00 PM 64.4 °F 57.2 °F 77% 29.98 in 5.0 mi SW 2.3 mph - N/A   Mostly Cloudy